Regional Weather Roundup
Issued by NWS

Home | Current Version | Previous Version | Graphics & Text | Print | Product List | Glossary On
Versions: 1 2 3 4 5 6 7 8 9 10 11 12 13 14 15 16 17 18 19 20 21 22 23 24 25 26 27 28 29 30 31 32 33 34 35 36 37 38 39 40 41 42 43 44 45 46 47 48 49 50
000
ASUS45 KSLC 052310
RWRUT

UTAH REGIONAL WEATHER ROUNDUP
NATIONAL WEATHER SERVICE SALT LAKE CITY UT
500 PM MDT THU MAY 05 2016

UTZ001>011-023>025-060000-

NORTHERN UTAH

CITY           SKY/WX    TMP DP  RH WIND       PRES   REMARKS
BRIGHAM CITY   CLOUDY    82  29  14 SW8       29.81F
HILL AFB       CLOUDY    78  38  24 SE12      29.84F
LOGAN          CLOUDY    78  45  30 CALM      29.82F
OGDEN          CLOUDY    80  32  17 S15G23    29.81F
PROVO AIRPORT  PTSUNNY   81  36  19 SE12      29.83F
SALT LAKE CITY CLOUDY    83  29  14 S17       29.79F
VERNAL         CLOUDY    79  26  14 VRB5      29.94F
WENDOVER       CLOUDY    77  36  22 NE3       29.78F
HEBER CITY     CLOUDY    73  28  19 SE14G21   29.91F

$$

UTZ012>022-026-027-060000-

SOUTHERN/CENTRAL UTAH

CITY           SKY/WX    TMP DP  RH WIND       PRES   REMARKS
BLANDING       CLOUDY    74  30  20 S17G25    30.06R
BRYCE CANYON   CLOUDY    66  24  20 SE20G38   30.00F
CEDAR CITY     PTSUNNY   76  23  14 S24G41    29.82F
DELTA          CLOUDY    79  27  14 S22G28    29.80F
HANKSVILLE     PTSUNNY   81  28  15 S13G18    29.87F
MILFORD        PTSUNNY   80  27  14 S20G29    29.79F
MOAB/CYNLANDS  MOSUNNY   85  27  12 S12G20    29.83F
PRICE          PTSUNNY   77  27  15 SE15      29.96F
ST GEORGE      CLOUDY    88  27  11 S23       29.69F
KANAB          MOSUNNY   82  21  10 S20G26    29.85

$$

REGIONAL REPORTS     COLORADO/ARIZONA

CITY           SKY/WX    TMP DP  RH WIND       PRES   REMARKS
CRAIG, CO      CLOUDY    76  30  18 E13       30.03F
GRAND JUNCTION CLOUDY    80  25  13 S5        29.89F
RIFLE          SUNNY     80  25  13 NW8       29.96F
MONTROSE       SUNNY     79  25  13 CALM      29.99F
CORTEZ         CLOUDY    80  27  14 S14G22    29.99F
PAGE, AZ       PTSUNNY   87  24  10 S13G28    29.78F
GRAND CANYON   MOSUNNY   73  19  13 S17G25    29.98F
KINGMAN        SUNNY     83  22  10 SE24G32   29.78F
FLAGSTAFF      SUNNY     66  18  15 S16G31    30.02F

$$

REGIONAL REPORTS    NEVADA/IDAHO/WYOMING

CITY           SKY/WX    TMP DP  RH WIND       PRES   REMARKS
LAS VEGAS, NV  PTSUNNY   83  15   8 SE12G29   29.65F
ELY            MOSUNNY   69  11  10 S23G39    29.88F
ELKO           CLOUDY    76  20  12 S23G30    29.79F
POCATELLO, ID  CLOUDY    80  33  18 S16       29.84F
BURLEY         CLOUDY    77  35  21 S10G23    29.78F
EVANSTON, WY   CLOUDY    71  26  18 S14G23    30.02F
ROCK SPRINGS   CLOUDY    72  19  13 SE14      30.04F
KEMMERER         N/A     73  12   9 S16G22    30.04F

$$



USA.gov is the U.S. government's official web portal to all federal, state and local government web resources and services.